Vorticity
6 4 5 3 3 4 3 3 4 4 5 10 9 8 13 10 13 16 9 13 31 15 16 17 17 10 14 6 12 19 18 20 22 25 22 12 12 13 14 7 6 8 4 3 -1 1 -4
8 5 4 3 3 3 3 3 4 5 4 12 9 8 10 11 14 17 2 19 21 25 19 19 15 19 15 5 4 17 13 18 20 18 17 18 13 14 10 10 6 7 8 5 -1 -0 9
4 6 7 5 5 3 3 3 5 4 4 10 10 8 9 10 14 17 4 18 24 17 38 14 13 5 19 21 4 7 16 14 18 17 13 13 17 16 14 12 9 5 6 4 5 -0 4
4 3 4 4 5 5 2 4 3 4 4 8 7 10 10 9 15 13 16 14 17 11 19 10 13 19 14 17 16 6 6 11 14 15 17 11 13 18 14 10 15 8 7 5 4 11 2
7 4 4 3 3 4 6 6 3 4 5 5 9 7 9 10 17 14 15 10 24 17 -3 20 14 21 20 17 18 13 8 9 14 13 19 18 14 9 15 12 13 15 8 6 5 6 3
8 9 7 6 5 4 3 4 7 5 4 5 8 5 7 6 17 17 13 14 8 17 15 5 12 19 13 13 16 18 13 11 14 12 10 10 24 16 14 13 10 12 11 6 11 7 10
9 8 8 9 8 7 7 6 4 6 6 5 7 7 2 8 11 13 15 18 16 10 12 21 16 20 18 12 11 13 16 12 11 11 8 7 16 22 20 16 17 8 13 11 13 5 3
13 13 13 13 14 12 10 7 7 5 4 8 7 7 6 2 7 15 11 14 15 16 7 14 11 11 12 11 14 13 14 14 11 11 12 8 11 17 20 12 11 10 8 12 8 7 6
5 7 8 7 6 7 11 11 9 7 5 5 8 7 5 5 5 8 17 13 10 11 13 15 9 12 14 14 7 12 14 14 11 11 10 6 5 18 21 16 14 13 16 14 7 8 11
3 3 3 2 3 4 5 5 7 9 8 7 7 9 7 3 7 5 9 17 12 11 11 12 12 14 12 16 15 17 15 14 12 13 9 6 9 15 20 18 13 13 11 10 8 9 9
2 3 2 2 2 3 3 3 4 6 7 10 8 8 9 8 -0 6 4 5 16 10 10 11 13 15 15 11 11 13 14 17 16 14 7 8 13 17 15 19 14 15 9 11 15 11 5
2 2 2 2 2 2 2 3 3 4 5 7 10 8 8 9 7 3 5 5 4 14 12 13 13 15 16 18 17 15 15 14 14 14 10 10 13 17 17 16 14 14 13 11 11 11 9
3 3 2 2 1 2 3 3 3 3 5 5 8 9 10 6 12 7 4 2 10 7 11 10 15 14 15 13 16 18 18 17 17 15 12 31 21 19 16 12 13 16 15 12 11 9 8
3 3 2 2 3 3 2 3 4 3 4 4 4 8 8 13 9 11 13 7 9 7 9 4 9 14 16 17 13 16 15 16 18 19 17 15 17 16 13 13 20 13 10 8 13 8 6
3 3 3 2 2 3 3 3 4 3 4 4 4 4 5 6 10 11 7 11 10 9 7 8 6 10 13 16 16 13 15 14 14 14 12 12 13 11 14 17 15 13 11 11 12 11 9
3 3 3 3 3 3 4 4 4 5 3 4 3 3 3 4 5 6 9 11 7 14 8 6 8 10 4 12 17 13 8 11 17 14 12 10 11 11 15 14 14 10 9 11 11 10 9
3 3 3 4 5 5 5 4 4 4 5 2 3 3 4 3 2 5 6 6 10 9 9 13 7 8 9 2 9 11 13 7 11 12 17 12 14 12 14 11 10 9 8 7 8 8 7
4 3 3 4 4 4 4 3 4 6 4 6 4 0 3 2 3 2 3 5 4 8 10 6 13 10 7 8 7 6 12 10 11 1 16 20 13 15 15 11 9 10 8 8 7 8 8
5 4 5 4 4 3 4 3 0 4 5 4 2 4 5 2 1 3 5 3 1 5 6 10 9 6 16 7 6 9 5 12 9 7 2 -3 15 20 14 13 11 11 9 8 7 6 7
3 4 2 4 4 5 4 1 -1 2 -4 10 9 5 2 3 1 2 5 6 4 8 8 5 9 10 7 8 12 7 7 7 5 9 9 8 7 3 12 14 16 10 8 9 9 8 5
3 4 4 4 4 5 6 5 4 4 -0 2 -1 1 16 7 2 -1 -1 5 -1 10 9 8 6 7 7 11 7 9 11 7 6 6 7 11 10 9 8 6 5 13 10 12 15 12 9
1 3 4 4 3 4 4 5 3 3 7 3 3 1 -1 5 15 10 4 4 2 12 8 8 7 6 6 8 6 12 7 7 11 9 9 7 8 7 9 7 8 8 6 7 6 6 7
4 1 1 4 4 2 4 4 4 4 3 3 2 2 -1 7 0 1 10 7 8 10 6 4 10 6 6 6 6 7 7 10 9 6 6 7 9 10 9 3 5 13 11 7 7 6 6
4 5 0 5 4 4 3 4 3 5 3 3 3 2 3 2 0 2 7 6 7 6 9 7 9 7 5 7 8 5 6 7 8 8 8 9 7 6 4 5 7 7 8 7 8 8 7
3 4 4 3 3 2 5 3 4 3 4 4 3 2 1 5 6 5 2 3 7 5 10 3 8 9 7 5 6 9 8 5 6 6 6 7 6 3 7 9 6 6 5 4 5 5 5
6 5 6 2 7 -2 4 1 -2 8 -1 -0 0 -2 -8 5 4 2 0 10 14 10 8 2 7 12 6 8 8 8 7 6 9 6 6 4 4 6 6 6 5 3 4 6 7 7 7
6 5 4 3 7 5 6 -1 7 4 4 9 9 -3 11 8 21 3 -2 5 -3 10 9 4 8 8 6 7 6 8 8 4 4 1 3 5 7 6 5 4 3 0 5 5 6 9 3
10 5 -1 -4 2 6 4 5 4 2 -1 -5 2 -2 15 -3 4 1 14 11 3 7 7 14 8 7 9 5 5 7 4 8 7 3 4 2 4 3 6 8 5 2 5 4 2 4 4
-11 5 14 6 0 11 4 -11 1 -2 2 18 14 19 14 15 16 14 18 11 4 6 9 5 9 6 12 11 11 12 15 9 4 3 6 9 3 7 11 9 6 7 6 5 5 4 5
Height
5804 5802 5799 5796 5793 5788 5783 5778 5772 5766 5758 5749 5739 5730 5720 5710 5699 5689 5680 5672 5663 5658 5654 5653 5654 5656 5658 5662 5664 5667 5670 5674 5680 5689 5699 5710 5721 5732 5743 5756 5765 5776 5786 5794 5805 5812 5815
5804 5801 5799 5795 5791 5787 5782 5777 5772 5765 5757 5748 5738 5729 5719 5709 5699 5689 5680 5670 5661 5655 5651 5649 5651 5653 5657 5660 5662 5665 5668 5672 5677 5686 5693 5703 5712 5722 5735 5746 5758 5769 5776 5787 5796 5804 5808
5804 5801 5798 5795 5790 5786 5782 5777 5771 5764 5757 5748 5739 5729 5719 5708 5698 5689 5680 5670 5662 5656 5650 5649 5651 5652 5654 5658 5660 5664 5667 5671 5675 5682 5689 5698 5708 5718 5727 5739 5748 5759 5768 5781 5789 5796 5802
5805 5801 5797 5794 5790 5786 5781 5776 5771 5765 5758 5749 5739 5730 5720 5710 5699 5690 5681 5672 5665 5660 5655 5653 5653 5652 5653 5656 5659 5663 5667 5671 5675 5680 5687 5695 5703 5713 5721 5731 5744 5754 5763 5774 5782 5789 5795
5805 5802 5798 5793 5789 5786 5781 5776 5770 5764 5758 5750 5741 5732 5722 5712 5702 5692 5684 5676 5669 5665 5661 5658 5656 5655 5655 5656 5659 5663 5667 5671 5675 5680 5685 5692 5699 5707 5718 5728 5736 5745 5758 5768 5775 5784 5789
5804 5801 5798 5794 5790 5785 5781 5776 5770 5764 5757 5751 5743 5735 5726 5716 5706 5696 5688 5680 5675 5670 5666 5663 5660 5659 5658 5658 5660 5663 5666 5670 5674 5679 5685 5691 5697 5704 5712 5720 5731 5744 5754 5762 5770 5778 5785
5803 5800 5797 5794 5790 5786 5781 5776 5771 5765 5757 5751 5745 5738 5729 5720 5710 5701 5693 5685 5682 5676 5670 5666 5663 5661 5661 5661 5662 5663 5666 5669 5673 5679 5683 5689 5695 5702 5710 5719 5725 5731 5745 5756 5760 5772 5779
5804 5801 5797 5793 5790 5786 5782 5777 5771 5766 5759 5752 5746 5740 5733 5725 5716 5706 5699 5692 5685 5680 5675 5671 5668 5667 5666 5665 5665 5666 5667 5670 5673 5678 5683 5688 5692 5695 5701 5710 5719 5727 5738 5746 5753 5768 5776
5804 5802 5798 5795 5791 5787 5783 5778 5773 5767 5761 5755 5748 5741 5736 5729 5722 5712 5705 5698 5691 5685 5680 5676 5673 5670 5669 5668 5668 5668 5668 5670 5673 5677 5681 5686 5690 5695 5701 5708 5715 5724 5736 5745 5752 5763 5771
5804 5802 5799 5795 5792 5789 5784 5779 5774 5769 5763 5757 5751 5744 5738 5733 5727 5718 5711 5703 5698 5692 5686 5682 5678 5675 5672 5670 5670 5669 5670 5672 5674 5677 5680 5685 5689 5693 5698 5705 5711 5722 5731 5738 5747 5759 5766
5803 5802 5799 5795 5792 5789 5786 5781 5776 5771 5765 5759 5753 5747 5741 5734 5730 5723 5717 5710 5704 5698 5693 5688 5682 5678 5675 5674 5673 5672 5672 5673 5676 5678 5682 5685 5687 5691 5695 5701 5710 5717 5727 5736 5747 5753 5757
5802 5800 5798 5796 5793 5790 5787 5783 5778 5773 5768 5762 5756 5750 5744 5738 5733 5728 5722 5715 5710 5705 5697 5694 5688 5683 5679 5676 5675 5674 5674 5676 5677 5679 5681 5684 5687 5690 5696 5702 5709 5717 5725 5733 5741 5747 5752
5800 5799 5797 5795 5793 5791 5788 5784 5779 5775 5769 5765 5760 5753 5747 5742 5736 5731 5726 5721 5716 5709 5705 5700 5695 5689 5684 5681 5679 5678 5677 5677 5679 5681 5682 5684 5687 5691 5696 5702 5709 5716 5722 5729 5736 5740 5749
5797 5797 5795 5794 5792 5790 5787 5784 5780 5776 5771 5767 5762 5757 5752 5745 5740 5734 5730 5726 5720 5714 5709 5705 5700 5696 5692 5687 5684 5683 5683 5682 5681 5682 5684 5687 5691 5694 5698 5704 5711 5714 5720 5727 5734 5740 5748
5794 5794 5793 5792 5791 5789 5787 5784 5780 5776 5773 5768 5764 5759 5755 5750 5744 5739 5734 5730 5724 5719 5715 5710 5706 5701 5698 5695 5691 5688 5687 5688 5688 5687 5688 5689 5693 5697 5701 5706 5711 5715 5720 5728 5734 5740 5745
5791 5791 5790 5789 5788 5787 5785 5783 5780 5776 5773 5769 5765 5761 5757 5752 5747 5742 5737 5733 5728 5724 5719 5714 5710 5707 5703 5700 5699 5695 5692 5692 5693 5693 5692 5693 5696 5700 5704 5708 5712 5715 5721 5727 5732 5739 5743
5787 5787 5787 5786 5785 5783 5782 5780 5778 5775 5772 5769 5766 5762 5758 5753 5749 5746 5740 5735 5732 5728 5724 5720 5715 5712 5709 5706 5703 5702 5701 5698 5697 5698 5698 5699 5700 5704 5707 5710 5712 5715 5719 5725 5731 5736 5739
5781 5781 5781 5782 5781 5780 5778 5777 5775 5773 5770 5768 5765 5762 5758 5754 5752 5747 5743 5738 5735 5730 5726 5723 5720 5716 5712 5710 5708 5706 5705 5704 5702 5701 5704 5705 5705 5706 5708 5711 5712 5714 5719 5724 5727 5732 5734
5775 5776 5776 5776 5776 5775 5774 5773 5771 5769 5768 5765 5762 5760 5757 5753 5750 5747 5744 5741 5736 5732 5729 5725 5722 5719 5717 5714 5712 5710 5708 5708 5707 5706 5706 5706 5708 5709 5710 5711 5712 5714 5719 5721 5724 5726 5730
5768 5769 5769 5770 5770 5770 5769 5768 5767 5765 5764 5762 5760 5757 5754 5752 5748 5745 5743 5740 5736 5733 5730 5726 5724 5720 5718 5716 5714 5712 5710 5709 5708 5708 5708 5709 5709 5710 5711 5711 5713 5715 5717 5718 5720 5722 5727
5760 5761 5762 5763 5763 5763 5762 5762 5761 5760 5759 5758 5756 5753 5750 5748 5746 5743 5740 5737 5734 5732 5729 5726 5723 5721 5718 5717 5715 5713 5712 5710 5709 5708 5708 5709 5709 5709 5710 5711 5712 5714 5715 5716 5718 5721 5720
5752 5753 5754 5755 5755 5756 5755 5754 5754 5753 5752 5752 5750 5748 5746 5744 5741 5739 5736 5733 5731 5728 5727 5724 5722 5719 5717 5715 5713 5712 5711 5710 5709 5708 5707 5707 5708 5707 5708 5709 5710 5711 5712 5713 5714 5716 5718
5743 5744 5745 5746 5746 5746 5747 5746 5746 5745 5744 5743 5742 5741 5739 5740 5737 5734 5732 5729 5727 5723 5722 5720 5718 5716 5714 5712 5710 5710 5708 5707 5707 5707 5705 5704 5704 5704 5705 5705 5706 5709 5709 5708 5710 5711 5711
5733 5734 5734 5736 5737 5737 5738 5738 5736 5736 5736 5735 5734 5733 5732 5732 5730 5728 5726 5723 5720 5719 5716 5714 5713 5712 5711 5708 5707 5706 5704 5704 5703 5703 5703 5702 5701 5700 5700 5700 5701 5703 5703 5703 5703 5703 5702
5720 5722 5723 5724 5725 5725 5726 5727 5727 5726 5726 5725 5725 5723 5722 5721 5723 5721 5718 5717 5715 5712 5711 5708 5707 5705 5704 5703 5702 5701 5701 5700 5698 5698 5697 5696 5695 5694 5693 5694 5695 5696 5697 5696 5695 5695 5694
5707 5708 5710 5711 5712 5713 5713 5714 5714 5715 5714 5714 5714 5713 5710 5710 5715 5712 5710 5708 5707 5704 5703 5702 5701 5699 5698 5696 5695 5695 5694 5693 5694 5694 5692 5690 5688 5688 5687 5684 5684 5689 5689 5687 5685 5683 5686
5693 5694 5696 5697 5698 5699 5699 5700 5701 5701 5701 5701 5701 5700 5698 5695 5701 5701 5700 5699 5699 5697 5693 5693 5692 5692 5690 5688 5688 5687 5686 5686 5685 5686 5686 5684 5682 5681 5678 5673 5675 5679 5676 5675 5675 5677 5671
5676 5679 5680 5681 5683 5684 5685 5685 5685 5686 5686 5685 5687 5686 5685 5682 5684 5687 5687 5687 5688 5687 5685 5681 5683 5684 5680 5680 5678 5677 5675 5676 5677 5677 5677 5675 5673 5673 5671 5667 5666 5667 5667 5665 5661 5658 5657
5658 5659 5662 5664 5666 5667 5669 5670 5669 5669 5670 5669 5671 5670 5669 5668 5670 5672 5673 5675 5675 5675 5674 5669 5670 5672 5670 5668 5668 5665 5666 5665 5666 5665 5666 5666 5665 5662 5662 5660 5657 5654 5652 5651 5650 5647 5645